Temp_Advection
nan nan nan nan nan nan nan nan nan nan nan nan nan nan nan nan nan nan nan nan nan nan nan nan nan nan nan nan nan nan nan nan nan nan nan nan nan nan nan nan nan nan nan nan nan nan nan
nan -1 -1 -0 -0 0 -0 -0 -0 -0 -0 -0 -0 -0 -0 -0 -0 -0 -0 -0 -0 -0 -0 0 0 0 -0 -0 -0 -0 -0 -0 -0 -0 -0 -0 -0 0 0 0 -0 -0 0 -0 -1 -1 nan
nan -0 -1 -0 -0 0 -0 -0 -0 -0 -0 -0 -0 -0 -0 -0 -0 -0 -0 -0 -0 0 0 0 0 0 -0 0 -0 0 0 0 -0 -0 -0 -0 -0 -0 0 0 -0 0 -0 -0 -0 -1 nan
nan -1 -0 -0 0 0 -0 -0 -0 -0 -0 -0 -0 -0 -0 -0 -0 -0 -0 -0 0 0 0 0 0 -0 0 0 0 -0 -0 -0 0 -0 -0 -0 0 0 0 0 -0 -1 -0 0 -0 -0 nan
nan -1 -0 0 -0 -0 -0 -0 -0 -0 -0 -0 -0 -0 -0 -0 -0 0 0 0 -0 0 0 0 0 0 -0 -0 -0 -1 0 -0 0 -0 -0 -0 0 -0 -0 -0 -0 -0 -0 -0 -0 0 nan
nan -0 -0 -0 -0 -0 -0 -0 -0 -0 -0 -0 -0 -0 -0 -0 -0 -0 -0 0 0 0 0 -0 -0 -0 -0 -0 -0 -0 1 0 0 -0 -0 -0 -0 -1 -0 0 0 0 -0 -0 -0 0 nan
nan -0 -0 -0 -0 -0 -0 -0 -0 -0 -0 -0 -0 -0 -0 -0 -0 -0 0 -0 0 0 -0 -0 -0 -0 -0 -0 -0 -0 -0 0 -1 -1 -0 -1 -0 0 0 0 0 -0 -0 -0 -0 0 nan
nan -0 -0 0 -0 -0 -0 -0 -0 -0 -0 -0 -0 -0 -0 -0 -0 0 0 0 0 0 0 0 0 -0 -0 -0 -1 -2 -1 -1 -1 -0 -0 -0 0 0 -0 -0 -0 -0 -0 -0 -0 -0 nan
nan -0 0 -0 -0 -0 -0 -0 -0 0 -0 -0 -0 -0 -0 0 -0 -0 0 0 -0 -0 0 -0 -0 -0 -0 -0 -1 -1 -2 -0 -0 -0 -0 0 -0 -0 -0 -0 -0 -0 -0 0 -0 -0 nan
nan -0 0 -0 -0 -0 -0 -0 -0 0 0 -0 -0 0 -0 0 -0 0 0 0 -0 -1 -0 -1 -0 -0 -0 -0 -0 -1 -1 -0 -1 -0 -0 0 -1 -0 -0 -0 -0 -0 0 0 0 -0 nan
nan 0 -0 -0 -0 -0 -0 0 0 0 0 -0 0 -0 -0 0 0 -0 -0 0 -0 -0 -0 -1 -0 -1 -1 -1 -0 -1 -1 -0 -0 -0 -0 -0 -0 -0 -0 -0 -0 -0 0 -0 -0 -0 nan
nan 0 -0 -0 -0 -0 -0 -0 0 0 0 0 -0 -0 -0 -0 0 0 0 0 -0 -1 -0 -1 -0 -0 -0 -1 -0 -1 -1 -1 -1 -0 -1 -0 -0 -0 -0 -0 -0 -0 -0 -1 -0 -0 nan
nan -0 -0 -0 -0 -0 -0 -0 0 0 0 -0 -0 -0 -0 0 -0 0 0 -0 -1 1 -0 -0 -0 -0 -0 -0 -0 -1 -1 -2 -0 -1 -1 -1 -0 -0 -0 -0 -0 -1 -0 -0 -0 -0 nan
nan -0 0 -0 -0 -0 -0 -0 -0 0 -0 -0 -0 -0 0 -0 0 0 -0 -1 0 -0 -0 -0 -0 -0 -0 -0 -0 -0 -0 -0 0 -0 -0 -0 -1 -0 -0 0 0 -0 -0 -0 -0 -0 nan
nan 0 -0 -0 -0 -0 -0 -0 -0 -0 -0 -0 -0 -0 -0 0 0 0 -0 -1 -0 -0 -0 -0 -0 -0 -0 -0 -0 -0 -0 0 -0 0 -0 0 -1 -0 -0 -0 0 0 -0 0 0 -0 nan
nan -0 -0 -0 -0 0 -0 -0 -0 0 0 -0 -0 -0 -0 0 0 -0 -2 0 0 0 0 -0 -0 -0 -0 -0 -0 -0 -0 0 -0 0 -0 0 -0 -0 -0 -0 -0 -0 0 -0 -0 -0 nan
nan -0 -0 0 0 -0 -0 -0 0 0 0 0 0 -0 -0 0 -0 -4 -0 1 0 -0 -0 -0 -0 -0 0 -0 -0 -0 -0 0 0 -0 -0 -0 -0 -1 -0 -0 -0 0 -0 -0 -0 -0 nan
nan -0 -0 0 -0 -0 -0 0 0 -0 -0 -0 -0 -0 0 -0 -2 -1 0 0 -0 -0 -0 -0 -0 -0 -0 -0 0 -0 -0 -0 0 -0 -0 0 -0 -0 -0 -0 -0 0 -0 -0 0 -0 nan
nan -0 0 -0 -0 -0 -0 0 0 -0 -0 -0 -0 -0 0 -0 -1 0 1 0 0 -0 -0 -0 -0 -0 -0 -0 -0 -0 -0 0 -0 -0 0 0 0 -0 -1 -0 -0 -0 -0 0 -0 -0 nan
nan 0 0 -0 -0 -0 -0 0 0 -0 0 -0 -1 -0 0 -2 -2 -1 0 0 0 -0 -0 -0 -0 -0 -0 -0 -0 -0 -0 -0 -0 0 0 -0 -0 -0 0 -0 -0 -0 -1 -0 -0 -0 nan
nan 0 0 -0 0 -0 0 0 -0 -0 -0 -0 -1 -0 -0 -0 -0 0 0 0 -0 -0 -0 -1 -0 -0 -0 -0 -0 -0 -0 -0 -0 -0 -0 -0 -0 -0 -0 -0 -0 0 -0 -0 -0 0 nan
nan 0 0 0 0 0 0 0 -0 -0 -0 -0 -0 -1 -1 -0 -0 -1 -0 0 0 -0 -0 -0 -0 -0 -0 -0 -0 0 0 -0 -0 -0 -0 -0 -0 -0 -0 -0 0 0 -0 0 -0 -0 nan
nan 0 0 0 0 0 0 0 -0 -0 -0 -0 -1 -1 -1 -1 -0 -0 0 0 0 -0 -0 -0 -0 -0 0 0 0 0 -0 -0 0 -0 0 -0 -0 -0 -0 -0 0 0 -0 -0 -0 -0 nan
nan 0 0 0 0 0 0 0 0 -0 -0 -0 -2 -1 -2 -0 0 0 0 -0 -0 -0 -0 -0 -0 0 0 0 0 -0 -0 -0 -0 -0 -0 0 -0 -0 -0 -0 0 -0 0 -0 -0 0 nan
nan 0 0 0 0 0 1 0 1 0 0 0 -1 -1 -2 -1 1 0 -0 0 0 -0 -0 -0 -0 0 0 -0 -0 -0 -0 0 0 0 -0 0 -0 -0 0 -0 -0 -0 -0 -0 -0 -0 nan
nan 0 0 0 0 1 0 0 0 1 0 0 0 -1 -2 -3 -0 0 0 -0 -0 -0 -0 -0 -0 0 -0 -1 -0 -0 0 -0 -0 -0 -0 -0 -0 0 -0 -0 -0 -0 -0 -0 -0 -0 nan
nan 0 0 1 1 1 1 0 0 0 0 0 -0 -0 -2 -3 0 0 -0 -0 0 -0 -0 -0 -0 -1 -1 -0 -0 -0 -0 -0 -0 -0 -0 -0 0 0 -0 -0 -0 -0 -0 -0 -0 -0 nan
nan 0 1 1 1 1 1 0 0 0 0 0 -0 0 -1 -4 0 1 0 -0 -0 -1 -0 -0 -0 -0 -0 -0 -0 -0 0 -0 -0 -0 -0 -0 -0 -0 -0 -0 0 0 0 -0 0 -0 nan
nan nan nan nan nan nan nan nan nan nan nan nan nan nan nan nan nan nan nan nan nan nan nan nan nan nan nan nan nan nan nan nan nan nan nan nan nan nan nan nan nan nan nan nan nan nan nan
Wind_Speed
10 13 9 9 8 8 8 8 9 8 10 11 12 11 10 10 10 11 10 8 5 3 1 2 2 6 9 6 2 8 12 11 10 11 6 5 5 1 2 3 5 5 2 4 13 19 15
12 11 10 9 8 8 8 7 9 8 8 9 10 9 11 9 8 9 6 4 3 2 6 7 6 6 5 4 5 9 15 15 9 9 6 7 4 7 6 3 2 5 7 9 8 13 11
12 10 10 8 7 8 7 7 8 8 7 8 8 8 9 8 8 4 3 3 4 8 6 5 5 7 8 6 10 9 17 21 11 9 9 6 6 4 7 6 4 7 4 6 10 13 5
13 8 9 8 8 7 6 6 7 7 7 7 7 8 8 6 6 0 4 6 7 9 6 4 3 1 4 16 12 14 22 19 5 10 10 8 7 8 3 7 8 5 5 5 4 11 8
12 9 9 8 7 7 6 7 6 6 5 6 7 8 7 4 3 5 8 7 8 7 11 5 6 2 3 10 20 27 28 16 7 2 4 4 3 2 4 3 4 7 2 3 8 8 4
11 10 7 7 8 7 6 6 6 5 4 5 7 8 6 3 1 10 13 16 10 4 2 4 20 2 12 16 14 32 19 10 7 6 3 2 3 4 4 6 1 4 4 5 3 6 8
10 9 8 7 7 5 6 5 4 4 4 5 6 6 6 3 2 14 13 5 1 5 22 18 10 9 14 16 11 34 28 9 15 10 4 5 7 3 5 4 3 4 3 2 4 3 4
11 9 8 8 6 7 5 3 3 3 4 5 5 5 5 1 2 3 11 8 7 9 10 13 12 15 16 12 16 42 28 9 10 5 6 7 5 2 6 6 6 6 5 4 5 5 2
11 9 9 7 7 5 4 2 1 3 4 5 6 5 4 2 2 3 8 11 17 10 5 11 11 21 26 8 11 34 24 8 7 6 6 5 5 6 6 8 7 3 5 5 6 4 4
10 10 10 8 7 5 4 2 1 2 3 5 6 4 3 2 0 5 10 18 10 5 5 11 11 16 28 3 7 33 19 5 8 6 5 6 10 7 8 6 5 3 6 6 8 2 2
11 11 10 7 6 5 3 1 1 2 2 4 5 5 4 2 3 5 10 12 6 1 5 8 7 16 21 13 10 25 23 6 5 5 3 2 9 9 8 6 7 3 9 5 4 1 3
13 11 9 7 6 5 3 1 1 2 2 4 6 7 4 5 5 7 14 10 3 6 1 6 6 7 8 14 9 14 23 12 11 4 8 4 6 6 4 10 4 8 6 5 4 3 4
15 12 10 8 7 5 3 1 2 2 4 8 10 11 10 6 7 11 12 5 5 7 4 7 4 6 5 7 7 8 10 20 8 8 9 7 4 6 15 6 7 12 6 4 6 5 2
14 12 10 8 6 4 3 1 1 4 7 11 13 13 12 10 5 6 5 5 9 3 3 4 5 2 6 8 4 12 4 6 10 5 2 6 6 8 13 4 5 6 2 4 3 1 4
14 12 9 8 7 5 3 2 1 4 10 14 15 17 17 12 5 3 1 7 5 1 3 5 2 6 7 6 4 6 7 5 7 7 5 6 4 5 8 4 4 6 5 2 2 3 2
14 12 10 9 7 5 4 2 1 4 13 10 2 7 17 11 9 3 7 5 2 3 3 3 3 4 6 8 6 4 5 6 7 8 1 2 5 3 8 5 7 5 3 3 4 3 3
15 12 12 10 7 6 5 3 2 7 9 7 0 3 13 5 7 13 5 3 4 11 5 4 3 4 3 4 4 3 6 2 7 7 6 2 3 7 5 5 3 5 4 4 3 3 1
13 11 11 8 7 6 5 3 4 8 6 4 2 4 13 5 8 5 3 2 4 7 12 7 5 4 3 6 5 4 3 5 17 6 3 3 2 4 4 7 7 1 3 4 3 4 2
14 12 11 10 7 6 5 4 7 9 6 6 6 5 16 2 4 3 6 5 8 6 7 4 6 5 4 4 4 5 4 8 15 7 4 4 2 4 7 5 6 4 4 5 2 1 3
14 11 11 10 8 6 6 6 8 10 8 4 4 3 12 20 17 8 6 4 4 7 9 9 5 7 5 6 6 3 6 4 7 12 11 4 1 3 4 5 2 7 14 14 3 2 2
13 11 10 8 6 6 6 6 8 9 9 3 5 4 3 2 7 10 5 3 3 4 5 14 4 5 3 4 3 3 5 5 4 11 8 3 1 2 9 13 10 9 9 11 1 6 2
15 13 11 9 7 6 7 7 7 10 10 3 6 8 12 6 7 10 7 3 3 3 6 4 4 4 5 4 3 2 4 1 2 7 6 6 3 4 4 2 7 2 11 11 11 12 2
15 13 11 9 8 6 7 7 7 8 10 5 13 25 9 7 4 4 2 3 2 7 8 8 3 3 6 1 10 15 13 11 5 3 4 4 3 6 4 7 1 2 9 10 7 18 10
16 14 12 10 9 7 8 7 7 7 7 8 29 14 9 3 5 3 7 10 6 4 6 4 8 4 7 16 5 9 4 5 7 9 6 4 4 2 4 5 3 3 11 10 13 17 21
16 15 12 11 10 10 11 10 11 13 15 27 18 8 8 4 9 12 15 10 11 11 6 9 10 8 14 7 3 3 3 2 3 3 1 1 1 3 2 2 3 3 8 9 8 7 19
17 15 13 13 12 13 14 14 16 17 15 10 9 10 18 18 4 7 6 5 2 2 4 4 7 11 9 5 4 3 1 3 3 5 3 3 3 2 2 2 2 4 15 24 7 3 26
18 16 15 14 14 14 14 14 14 13 11 8 18 18 15 22 9 6 5 3 3 4 3 3 6 11 13 4 3 3 2 3 2 4 4 4 3 3 3 2 2 9 27 18 2 5 28
19 17 16 15 15 14 14 14 15 14 12 10 18 16 7 20 24 15 12 9 7 6 3 3 3 8 5 4 3 2 2 2 3 4 2 2 4 2 3 3 3 17 11 5 8 23 22
21 19 17 16 16 15 15 15 14 13 11 8 19 18 35 24 26 23 22 19 16 12 6 9 5 2 4 3 1 1 1 3 2 2 4 2 2 2 1 3 7 11 15 16 11 19 23
Wind_Direction
289 289 259 248 237 230 244 261 271 281 292 298 302 306 306 311 320 320 316 309 298 280 256 63 70 144 131 115 4 1 344 317 291 311 293 318 299 319 239 277 307 197 248 297 296 295 272
284 286 261 231 223 228 239 254 270 279 291 295 300 308 308 316 325 325 332 327 312 103 111 91 73 124 125 84 357 350 341 325 294 304 286 297 302 316 280 270 183 296 302 291 333 313 278
281 274 260 220 220 232 244 259 271 280 293 298 300 311 315 321 334 337 28 54 73 112 82 82 87 85 84 20 348 338 332 323 306 277 284 276 302 315 307 304 291 273 323 359 12 334 32
280 260 230 218 215 234 241 258 268 286 295 303 309 314 318 318 340 97 102 101 102 109 71 90 99 106 102 28 21 341 337 330 303 248 259 276 290 308 284 295 340 15 47 16 334 13 6
272 240 211 216 222 235 245 254 272 275 294 309 314 316 325 312 342 142 111 118 132 113 73 73 54 106 8 0 19 5 358 346 12 169 249 281 275 352 354 30 16 7 308 339 341 7 353
260 218 210 213 224 229 245 260 263 285 304 316 315 327 327 295 309 161 121 97 100 76 151 14 27 65 17 347 6 0 14 19 19 0 84 107 72 57 29 44 333 316 6 354 325 326 46
241 214 204 216 220 228 243 253 281 287 318 311 321 333 322 299 324 183 149 149 194 87 71 72 46 30 350 1 12 10 13 47 36 47 34 25 66 38 22 27 48 99 76 329 286 296 102
228 204 202 211 220 225 231 252 276 318 326 319 329 336 310 322 305 196 196 202 150 129 82 49 40 27 17 21 17 10 13 42 34 30 359 28 57 22 115 46 54 57 32 339 295 288 32
228 201 202 210 226 213 239 234 281 339 334 331 336 338 318 214 33 76 174 170 136 127 91 29 14 16 8 24 45 9 5 5 38 30 1 104 0 34 71 33 33 15 24 311 262 304 306
215 200 210 205 214 200 220 222 357 6 341 351 348 360 12 180 88 123 140 144 134 120 75 331 355 11 17 49 41 5 13 24 23 20 360 63 348 49 42 29 357 4 322 282 287 350 276
204 199 210 207 206 204 208 167 53 38 18 2 13 21 53 148 166 160 154 147 135 96 57 295 341 15 44 62 335 5 22 63 34 334 30 342 31 15 34 325 319 306 310 292 320 9 98
202 199 202 206 198 214 183 183 80 53 93 44 53 45 79 73 91 133 151 150 124 43 269 332 357 358 27 41 22 12 25 54 39 25 24 22 2 47 299 314 336 297 339 16 34 48 49
202 195 198 200 202 202 191 178 103 108 111 88 80 67 65 80 90 117 136 140 42 89 287 339 346 345 42 1 28 19 25 43 38 9 16 336 18 341 10 350 352 9 31 357 5 12 223
198 198 190 195 207 190 182 200 172 139 115 98 83 66 55 61 84 145 156 59 70 258 352 345 354 328 46 3 24 27 41 32 22 50 24 23 334 20 334 354 288 305 40 131 224 315 291
194 199 189 191 203 183 191 224 206 161 140 114 90 64 46 39 48 136 148 53 169 346 299 340 5 38 353 353 29 69 53 35 22 15 36 7 286 323 328 329 359 329 30 12 277 25 49
192 197 189 191 197 183 195 221 197 164 164 146 94 46 35 31 49 90 72 120 96 354 20 51 84 24 27 339 29 53 40 354 351 0 80 319 312 323 307 22 7 79 285 35 12 43 335
195 192 189 188 187 200 184 203 144 145 149 177 154 82 11 20 37 60 96 93 90 28 88 63 53 50 36 7 10 59 6 73 350 323 33 54 115 303 356 26 337 351 15 20 109 97 160
200 195 187 190 191 191 182 175 145 148 152 140 74 55 4 61 46 45 62 84 98 16 59 67 77 68 35 16 30 72 79 12 349 344 17 329 155 297 275 289 4 315 69 91 73 333 251
192 191 188 192 188 186 178 159 154 159 146 122 88 59 22 116 104 55 70 58 72 36 18 67 41 46 10 39 77 58 59 20 30 40 27 329 350 337 346 15 5 10 333 9 178 257 237
187 188 193 187 181 186 175 158 158 160 157 132 104 54 43 59 89 102 114 63 100 51 46 64 49 51 32 38 17 73 15 348 339 21 4 22 10 168 218 257 261 299 313 324 231 241 281
176 180 186 182 177 177 169 160 160 174 169 138 76 80 80 56 29 85 90 73 64 48 66 36 53 49 9 39 50 54 2 332 329 13 10 58 311 301 275 262 266 282 316 304 265 265 233
176 178 179 172 173 172 162 161 164 170 173 124 111 131 101 91 88 66 27 36 99 88 34 27 69 346 32 83 86 320 19 317 347 336 3 2 329 333 287 340 328 240 12 16 34 10 264
174 170 168 165 156 153 155 162 163 163 162 118 125 128 113 33 54 74 351 141 114 115 52 64 18 93 53 89 301 287 260 259 277 355 316 10 349 350 287 340 185 356 359 12 360 29 10
170 163 160 155 142 141 137 144 152 155 172 168 142 129 99 22 77 91 95 94 89 68 118 50 40 69 337 323 331 59 116 239 264 275 238 315 339 320 295 331 49 343 18 7 350 37 23
165 157 153 146 137 132 127 125 120 120 126 151 143 124 111 103 97 82 93 101 88 86 81 65 40 7 345 8 54 46 13 47 342 258 172 187 35 332 27 322 297 21 11 349 352 0 19
157 152 145 140 134 130 132 134 129 133 146 164 140 129 115 121 11 105 101 103 114 53 29 28 21 15 24 48 51 65 95 327 354 359 2 75 78 116 341 333 64 19 328 327 295 21 1
152 148 142 137 132 131 131 135 132 130 134 150 127 126 112 100 69 107 92 110 81 86 88 17 358 10 17 28 56 49 331 307 16 1 335 348 1 10 328 319 351 4 332 327 63 324 320
150 145 137 131 129 129 128 128 126 125 129 144 117 116 127 101 79 87 91 89 82 63 105 358 59 12 32 58 75 298 52 332 11 343 30 33 331 347 323 347 48 5 346 42 302 305 318
147 142 136 128 127 127 127 127 126 126 139 153 121 113 125 102 101 91 83 74 68 63 77 50 94 92 58 90 39 135 10 11 46 338 346 360 169 275 249 250 299 318 292 298 307 323 330
Height
1514 1514 1513 1512 1513 1513 1514 1514 1513 1511 1511 1510 1508 1506 1504 1501 1500 1497 1495 1493 1492 1491 1490 1490 1489 1489 1489 1492 1492 1491 1489 1487 1486 1484 1483 1483 1482 1483 1483 1481 1479 1478 1475 1473 1471 1469 1466
1512 1512 1512 1510 1512 1512 1512 1512 1512 1510 1509 1508 1507 1504 1503 1500 1498 1496 1494 1492 1491 1490 1490 1490 1490 1490 1491 1492 1492 1491 1488 1485 1483 1482 1481 1481 1481 1481 1480 1479 1480 1474 1473 1472 1470 1467 1465
1510 1508 1511 1509 1511 1512 1512 1511 1511 1509 1508 1507 1505 1503 1501 1498 1497 1495 1494 1492 1491 1491 1491 1490 1491 1491 1492 1494 1491 1488 1486 1483 1480 1480 1479 1480 1480 1481 1480 1477 1475 1473 1474 1470 1472 1467 1468
1509 1507 1509 1510 1509 1511 1510 1509 1509 1508 1506 1505 1503 1502 1499 1497 1496 1495 1494 1494 1494 1492 1492 1492 1491 1493 1492 1493 1490 1488 1482 1478 1477 1477 1478 1479 1479 1479 1478 1476 1474 1476 1477 1486 1475 1470 1469
1507 1506 1508 1509 1508 1510 1510 1509 1508 1507 1505 1504 1502 1500 1498 1496 1495 1496 1495 1494 1495 1495 1494 1493 1493 1492 1494 1493 1488 1485 1480 1475 1475 1476 1477 1477 1478 1478 1477 1481 1488 1488 1492 1485 1483 1475 1472
1505 1505 1506 1508 1509 1509 1509 1508 1508 1506 1504 1503 1501 1499 1497 1495 1496 1496 1496 1495 1496 1495 1494 1494 1495 1496 1495 1493 1489 1485 1478 1476 1475 1474 1476 1477 1478 1483 1486 1490 1505 1496 1494 1493 1491 1482 1481
1505 1504 1505 1508 1508 1507 1508 1507 1506 1505 1502 1501 1500 1497 1496 1495 1495 1496 1495 1496 1500 1499 1496 1499 1502 1501 1497 1494 1491 1485 1478 1478 1477 1477 1482 1480 1489 1494 1490 1488 1487 1488 1492 1492 1486 1480 1484
1505 1504 1504 1509 1507 1506 1507 1507 1506 1504 1502 1500 1498 1496 1496 1494 1494 1493 1493 1495 1496 1500 1501 1501 1502 1500 1496 1494 1490 1484 1482 1482 1483 1488 1483 1489 1493 1486 1485 1486 1488 1490 1496 1497 1489 1481 1481
1504 1503 1504 1508 1506 1505 1506 1505 1504 1503 1502 1500 1498 1495 1494 1494 1494 1493 1492 1496 1496 1498 1500 1503 1502 1500 1498 1497 1496 1494 1489 1487 1488 1491 1491 1493 1491 1488 1486 1491 1493 1492 1497 1496 1495 1483 1479
1502 1501 1508 1505 1505 1505 1505 1505 1503 1502 1502 1501 1497 1494 1493 1493 1497 1494 1495 1497 1497 1498 1513 1515 1505 1506 1501 1497 1499 1500 1493 1494 1492 1496 1492 1495 1494 1492 1493 1494 1494 1496 1489 1489 1486 1487 1498
1500 1501 1507 1503 1504 1505 1505 1504 1503 1502 1501 1500 1497 1494 1493 1494 1494 1495 1497 1498 1499 1500 1554 1518 1513 1512 1509 1506 1512 1504 1498 1496 1502 1500 1497 1506 1503 1502 1500 1501 1495 1494 1488 1486 1483 1487 1491
1501 1502 1502 1503 1504 1505 1504 1505 1502 1503 1502 1500 1497 1494 1495 1496 1495 1496 1496 1499 1501 1525 1560 1523 1517 1516 1513 1514 1514 1512 1507 1499 1503 1502 1504 1508 1504 1506 1506 1498 1496 1492 1489 1488 1490 1494 1515
1501 1499 1500 1503 1504 1504 1504 1504 1504 1504 1502 1499 1498 1497 1497 1496 1497 1498 1498 1501 1524 1551 1529 1531 1526 1520 1521 1522 1520 1520 1521 1518 1530 1525 1530 1519 1511 1509 1506 1503 1497 1499 1502 1526 1519 1522 1527
1498 1498 1499 1502 1504 1503 1503 1504 1506 1504 1502 1500 1500 1500 1499 1498 1499 1500 1500 1505 1547 1537 1534 1530 1528 1524 1530 1528 1527 1530 1529 1537 1535 1537 1539 1541 1527 1520 1517 1515 1513 1507 1505 1531 1533 1526 1516
1496 1497 1499 1501 1504 1502 1503 1506 1505 1504 1501 1501 1502 1501 1500 1500 1500 1500 1502 1542 1550 1537 1535 1534 1531 1535 1538 1532 1531 1533 1541 1545 1544 1542 1547 1554 1537 1523 1519 1516 1513 1509 1517 1513 1515 1524 1528
1494 1497 1498 1502 1502 1502 1504 1505 1505 1502 1500 1502 1502 1501 1502 1503 1501 1502 1509 1539 1538 1535 1534 1534 1539 1540 1547 1542 1538 1537 1545 1549 1548 1544 1544 1549 1557 1528 1522 1517 1516 1517 1515 1520 1530 1547 1557
1494 1496 1499 1499 1500 1504 1504 1505 1502 1500 1502 1503 1503 1503 1506 1504 1503 1503 1536 1537 1537 1537 1535 1539 1542 1546 1546 1547 1544 1544 1554 1552 1550 1547 1545 1547 1555 1538 1527 1526 1528 1524 1528 1528 1531 1541 1545
1495 1498 1498 1500 1502 1503 1504 1503 1501 1502 1503 1505 1504 1506 1507 1505 1508 1521 1536 1535 1537 1539 1539 1541 1543 1546 1548 1549 1548 1549 1556 1556 1551 1548 1550 1548 1552 1554 1538 1528 1527 1525 1530 1541 1547 1538 1533
1495 1496 1497 1501 1502 1503 1502 1501 1501 1503 1503 1505 1506 1507 1509 1507 1527 1535 1536 1539 1541 1542 1543 1544 1549 1549 1549 1551 1553 1553 1555 1557 1553 1552 1554 1551 1556 1558 1541 1534 1534 1535 1532 1533 1539 1537 1528
1494 1495 1499 1501 1501 1502 1501 1501 1501 1503 1504 1506 1505 1514 1515 1513 1522 1528 1538 1543 1545 1546 1547 1549 1552 1551 1552 1555 1555 1558 1560 1558 1555 1554 1552 1550 1554 1557 1565 1553 1550 1545 1535 1533 1529 1532 1526
1492 1496 1499 1501 1500 1501 1501 1501 1501 1503 1504 1506 1507 1519 1523 1533 1534 1533 1536 1543 1548 1550 1550 1552 1555 1558 1558 1562 1560 1564 1564 1561 1556 1556 1554 1554 1559 1554 1550 1545 1543 1541 1538 1531 1526 1522 1524
1492 1496 1499 1499 1500 1502 1500 1501 1501 1502 1504 1505 1508 1516 1525 1532 1534 1536 1541 1549 1551 1553 1554 1557 1559 1559 1559 1563 1566 1567 1567 1564 1564 1559 1557 1557 1559 1558 1549 1538 1536 1542 1537 1530 1526 1523 1523
1493 1495 1497 1500 1501 1501 1501 1501 1501 1501 1504 1505 1509 1514 1519 1536 1538 1542 1549 1551 1553 1555 1561 1560 1560 1560 1561 1563 1563 1562 1563 1563 1564 1566 1563 1562 1562 1555 1549 1542 1540 1538 1542 1538 1536 1533 1528
1494 1495 1498 1501 1501 1502 1501 1501 1501 1501 1502 1505 1509 1514 1520 1544 1541 1545 1549 1551 1555 1556 1558 1562 1560 1560 1562 1559 1559 1558 1560 1562 1563 1563 1564 1563 1562 1559 1554 1545 1544 1546 1546 1543 1541 1536 1533
1494 1495 1498 1501 1501 1503 1502 1503 1502 1501 1503 1508 1511 1514 1520 1543 1547 1551 1553 1556 1558 1558 1559 1561 1562 1563 1560 1558 1560 1562 1565 1563 1562 1561 1562 1562 1564 1565 1563 1553 1550 1546 1549 1552 1549 1542 1543
1494 1497 1500 1501 1503 1503 1504 1505 1505 1505 1510 1513 1514 1515 1519 1531 1555 1554 1556 1559 1561 1561 1562 1563 1563 1561 1560 1560 1565 1571 1579 1568 1566 1564 1562 1563 1565 1570 1562 1556 1556 1556 1554 1550 1549 1544 1544
1495 1498 1501 1502 1504 1506 1506 1508 1508 1509 1512 1515 1516 1519 1520 1533 1554 1556 1558 1562 1562 1563 1566 1566 1565 1563 1563 1568 1574 1585 1583 1573 1579 1574 1571 1570 1567 1566 1565 1560 1558 1561 1555 1547 1549 1559 1550
1496 1500 1501 1503 1506 1507 1508 1510 1510 1512 1515 1518 1520 1523 1524 1539 1556 1559 1561 1564 1564 1565 1569 1570 1571 1570 1571 1580 1585 1590 1588 1582 1583 1578 1577 1580 1575 1574 1569 1569 1565 1562 1556 1556 1562 1556 1552
1497 1500 1503 1505 1507 1510 1511 1512 1513 1515 1518 1520 1522 1528 1528 1532 1559 1563 1565 1567 1568 1568 1568 1571 1576 1577 1578 1585 1588 1587 1587 1587 1586 1587 1579 1584 1580 1580 1576 1570 1564 1564 1562 1560 1560 1557 1551